TimeMDT,TemperatureF,Dew PointF,Humidity,Sea Level PressureIn,VisibilityMPH,Wind Direction,Wind SpeedMPH,Gust SpeedMPH,PrecipitationIn,Events,Conditions,WindDirDegrees,DateUTC
12:48 AM,42.1,39.9,92,29.92,-9999.0,SE,4.6,-,0.05,,Unknown,130,2012-11-02 06:48:00
1:48 AM,41.0,39.0,93,29.93,-9999.0,WNW,5.8,-,N/A,,Unknown,300,2012-11-02 07:48:00
2:48 AM,41.0,39.9,96,29.92,-9999.0,West,3.5,-,N/A,,Unknown,260,2012-11-02 08:48:00
3:48 AM,42.1,39.9,92,29.93,-9999.0,NW,4.6,-,N/A,,Unknown,310,2012-11-02 09:48:00
4:48 AM,43.0,39.9,89,29.93,-9999.0,West,9.2,-,N/A,,Unknown,280,2012-11-02 10:48:00
5:48 AM,43.0,39.9,89,29.95,-9999.0,West,8.1,-,N/A,,Unknown,280,2012-11-02 11:48:00
6:48 AM,41.0,39.0,93,29.98,-9999.0,WNW,6.9,-,N/A,,Unknown,300,2012-11-02 12:48:00
7:48 AM,35.1,34.0,96,30.01,-9999.0,WNW,4.6,-,N/A,,Unknown,290,2012-11-02 13:48:00
8:48 AM,37.9,36.0,93,30.05,-9999.0,NW,6.9,-,N/A,,Unknown,310,2012-11-02 14:48:00
9:48 AM,41.0,37.0,86,30.06,-9999.0,NW,12.7,-,N/A,,Unknown,310,2012-11-02 15:48:00
10:48 AM,39.0,36.0,89,30.08,-9999.0,WNW,10.4,-,N/A,,Unknown,300,2012-11-02 16:48:00
11:48 AM,39.0,35.1,86,30.10,-9999.0,NW,15.0,-,N/A,,Unknown,310,2012-11-02 17:48:00
12:48 PM,39.0,33.1,79,30.11,-9999.0,NW,18.4,-,N/A,,Unknown,310,2012-11-02 18:48:00
1:48 PM,37.9,34.0,86,30.12,-9999.0,NW,15.0,-,0.01,,Unknown,310,2012-11-02 19:48:00
2:48 PM,41.0,34.0,76,30.12,-9999.0,NW,16.1,-,N/A,,Unknown,320,2012-11-02 20:48:00
3:48 PM,43.0,35.1,74,30.13,-9999.0,NW,16.1,-,N/A,,Unknown,320,2012-11-02 21:48:00
4:48 PM,42.1,34.0,73,30.14,-9999.0,NNW,9.2,-,N/A,,Unknown,340,2012-11-02 22:48:00
5:48 PM,37.9,34.0,86,30.15,-9999.0,North,5.8,-,N/A,,Unknown,350,2012-11-02 23:48:00
6:48 PM,37.9,34.0,86,30.17,-9999.0,Calm,Calm,-,N/A,,Unknown,0,2012-11-03 00:48:00
7:48 PM,37.0,34.0,89,30.19,-9999.0,Calm,Calm,-,N/A,,Unknown,0,2012-11-03 01:48:00
8:48 PM,37.0,34.0,89,30.18,-9999.0,NE,3.5,-,N/A,,Unknown,50,2012-11-03 02:48:00
9:48 PM,36.0,34.0,93,30.20,-9999.0,Calm,Calm,-,N/A,,Unknown,0,2012-11-03 03:48:00
10:48 PM,37.0,34.0,89,30.20,-9999.0,Calm,Calm,-,N/A,,Unknown,0,2012-11-03 04:48:00
11:48 PM,36.0,34.0,93,30.21,-9999.0,Calm,Calm,-,N/A,,Unknown,0,2012-11-03 05:48:00